Location: Newark
(15.4608°S, 41.1635°W)
Time: 13:21:47
(UTC+00:00)

UWE-3 - Visible Passes

Search period start: 18 February 2020 00:00
Search period end: 28 February 2020 00:00
Orbit: 585 x 683 km, 97.6° (Epoch: 17 February)

Date Brightness Start Highest point End Pass type
(mag) Time Alt. Az. Time Alt. Az. Time Alt. Az.
18 Feb ? 07:38:15 10° NNE 07:42:53 77° ESE 07:47:30 10° S visible
19 Feb ? 07:59:56 10° N 08:04:27 54° W 08:08:58 10° SSW visible
20 Feb ? 06:47:11 10° ENE 06:49:57 16° ESE 06:52:42 10° SE visible
20 Feb ? 08:22:07 10° NNW 08:26:03 28° W 08:29:59 10° SW visible
21 Feb ? 07:07:26 10° NE 07:11:26 29° ESE 07:15:24 10° SSE visible
22 Feb ? 07:28:25 10° NNE 07:32:58 57° ESE 07:37:26 10° S visible
23 Feb ? 07:49:55 10° N 07:54:31 72° W 07:59:04 10° SSW visible
24 Feb ? 06:38:28 10° E 06:40:03 12° ESE 06:41:37 10° SE visible
24 Feb ? 08:11:52 10° NNW 08:16:05 36° W 08:20:17 10° SSW visible
25 Feb ? 06:57:58 10° NE 07:01:31 22° ESE 07:05:00 10° SSE visible
26 Feb ? 07:18:42 10° NNE 07:23:01 42° ESE 07:27:16 10° S visible
27 Feb ? 07:39:58 10° NNE 07:44:33 85° E 07:49:04 10° S visible
